Weather History for Rawlins, WY

Change the Weather History Date:

Tuesday, January 22, 2013

  Actual Average Record
Temperature  
Mean Temperature 33 °F 22 °F  
Max Temperature 41 °F 31 °F 52 °F (1981)
Min Temperature 25 °F 12 °F -34 °F (1962)
Degree Days  
Heating Degree Days 32 43  
Month to date heating degree days 1087 946  
Since 1 July heating degree days 4038 4400  
Cooling Degree Days 0 0  
Month to date cooling degree days 0 0  
Year to date cooling degree days 0 0  
Moisture  
Dew Point 6 °F    
Average Humidity 35    
Maximum Humidity 46    
Minimum Humidity 23    
Precipitation  
Precipitation 0.00 in 0.01 in 0.27 in (1965)
Month to date precipitation T 0.27  
Year to date precipitation T 0.27  
Sea Level Pressure  
Sea Level Pressure 30.22 in    
Wind  
Wind Speed 17 mph (WSW)    
Max Wind Speed 33 mph    
Max Gust Speed 43 mph    
Visibility 10 miles    
Events      
T = Trace of Precipitation, MM = Missing Value Source: NWS Daily Summary

Daily Weather History Graph

Daily Weather History Graph

Search for Another Location

Airport:

Trip Planner

Search our weather history database for the weather conditions in past years. The results will help you decide how hot, cold, wet, or windy it might be!

Date:

Astronomy

Jan. 22, 2013 Rise Set
Actual Time 7:29 AM MST 5:11 PM MST
Civil Twilight 6:59 AM MST 5:42 PM MST
Nautical Twilight 6:25 AM MST 6:16 PM MST
Astronomical Twilight 5:52 AM MST 6:49 PM MST
Moon 1:36 PM MST (1/22) 3:54 AM MST (1/22)
Length of Visible Light 10h 42m
Length of Day
9h 42m
Waxing Gibbous, 83% of the Moon is Illuminated
Jan 22
Waxing Gibbous
Jan 26
Full
Feb 3
Last Quarter
Feb 10
New
Feb 17
First Quarter

Hourly Weather History & Observations

Time (MST) Temp. Windchill Dew Point Humidity Pressure Visibility Wind Dir Wind Speed Gust Speed Precip Events Conditions
12:53 AM 27.0 °F 13.5 °F 9.0 °F 47% 30.20 in 10.0 mi WSW 19.6 mph 31.1 mph N/A   Clear
1:53 AM 27.0 °F 15.2 °F 8.1 °F 45% 30.18 in 10.0 mi WSW 15.0 mph 20.7 mph N/A   Clear
2:53 AM 27.0 °F 21.6 °F 8.1 °F 45% 30.19 in 10.0 mi Variable 4.6 mph - N/A   Clear
3:53 AM 27.0 °F 10.8 °F 8.1 °F 45% 30.17 in 10.0 mi WSW 29.9 mph 39.1 mph N/A   Clear
4:53 AM 25.0 °F 10.2 °F 7.0 °F 46% 30.23 in 10.0 mi WSW 21.9 mph 29.9 mph N/A   Clear
5:53 AM 26.1 °F 12.7 °F 7.0 °F 44% 30.23 in 10.0 mi WSW 18.4 mph 26.5 mph N/A   Clear
6:53 AM 28.0 °F 15.3 °F 6.1 °F 39% 30.21 in 10.0 mi WSW 18.4 mph 27.6 mph N/A   Clear
7:53 AM 28.9 °F 16.9 °F 6.1 °F 38% 30.21 in 10.0 mi WSW 17.3 mph 27.6 mph N/A   Clear
8:53 AM 30.9 °F 16.9 °F 7.0 °F 37% 30.19 in 10.0 mi WSW 26.5 mph 34.5 mph N/A   Clear
9:53 AM 35.1 °F 23.3 °F 7.0 °F 31% 30.20 in 10.0 mi West 23.0 mph 40.3 mph N/A   Clear
10:53 AM 37.0 °F 24.9 °F 7.0 °F 29% 30.23 in 10.0 mi West 27.6 mph 36.8 mph N/A   Clear
11:53 AM 39.0 °F 28.8 °F 8.1 °F 28% 30.20 in 10.0 mi West 21.9 mph 34.5 mph N/A   Clear
12:53 PM 39.9 °F 28.2 °F 7.0 °F 26% 30.18 in 10.0 mi WSW 31.1 mph 40.3 mph N/A   Clear
1:53 PM 41.0 °F 30.0 °F 7.0 °F 25% 30.18 in 10.0 mi WSW 28.8 mph 38.0 mph N/A   Clear
2:53 PM 39.9 °F 29.0 °F 8.1 °F 27% 30.18 in 10.0 mi WSW 26.5 mph 34.5 mph N/A   Clear
3:53 PM 37.9 °F 28.2 °F 7.0 °F 28% 30.22 in 10.0 mi WSW 18.4 mph - N/A   Clear
4:53 PM 37.0 °F 32.4 °F 5.0 °F 26% 30.26 in 10.0 mi SW 5.8 mph 19.6 mph N/A   Clear
5:53 PM 33.1 °F 30.0 °F 6.1 °F 32% 30.27 in 10.0 mi Variable 3.5 mph - N/A   Clear
6:53 PM 33.1 °F 27.7 °F 3.0 °F 28% 30.28 in 10.0 mi WSW 5.8 mph - N/A   Clear
7:53 PM 35.1 °F 32.2 °F 3.0 °F 26% 30.26 in 10.0 mi Variable 3.5 mph - N/A   Clear
8:53 PM 35.1 °F - 3.0 °F 26% 30.25 in 10.0 mi Calm Calm - N/A   Clear
9:53 PM 33.1 °F 30.0 °F 3.0 °F 28% 30.24 in 10.0 mi Variable 3.5 mph - N/A   Clear
11:53 PM 34.0 °F 23.4 °F 5.0 °F 30% 30.22 in 10.0 mi WSW 17.3 mph 25.3 mph N/A   Clear